STARLINK-30210, 57292

Orbit data source: Space-Track

STARLINK-30210, 57292 is a payload satellite owned by SpaceX/Seattle (US) in LEO that was launched on Mon, 10 Jul 2023 UTC via an FALCON 9 launch vehicle from the Air Force Eastern Test Range (AFETR). Payload-class satellites include a variety of spacecraft equipped with specific instruments for various scientific and technological missions. These include communications satellites like Starlink; space stations such as the ISS; scientific satellites like the Hubble; Earth observation satellites from companies like Planet Labs, Umbra, and HawkEye 360; GPS; miniature CubeSats for education and research; and military/defense satellites.

Loading next visibility...
Identifier
57292, 2023-096C
Orbit
LEO
Country
Flag of USUS
Related business
Manufacturer
SpaceX/Seattle
Mission
Partially operational Commercial Communications
Bus & Motor
STARLINK V2M, Unknown motor
Mass
730 kg wet, ~700 kg dry
Launch date (UTC)
2023-07-10 (2 years ago)
Launch vehicle
FALCON 9
Launch site
Air Force Eastern Test Range (AFETR)
Object type
Payload
Rocket body
Debris
Shape & HBR
Box + 2 Pan, 14.5 m
Radar Cross Section
33.884 m², Large (>1 m²)

Expand to show TLE details & history
Last TLE update: 1 day ago

TLE from 1 day ago
0 STARLINK-30210
1 57292U 23096C   25240.99595383  .00070266  00000-0  34359-2 0  9996
2 57292  42.9973 178.9789 0010030 153.4051 206.7313 15.17296302118641
Epoch: 2025-08-28T23:54Z
TLE epoch observation values (Epoch: 2025-08-28T23:54:10.41Z)
Latitude
-0.00003°
Longitude
-157.01546°
Altitude
519.967 km
Speed
7.602 km/s
True Right ascension
11h 55m 54s
True Declination
0° 00' 00"
Sunlit
Object was in daylight at epoch
Visualization orbit readout
Latitude
Unknown
Longitude
Unknown
Altitude
Unknown
Speed
Unknown
Apparent Right ascension
Unknown
Apparent Declination
Unknown
Sunlit
N/A
Visualization observer readout
Local Sidereal Time
17:08:03
Azimuth
Unknown
Elevation
Unknown
Doppler factor
Unknown
Orbital elements
Apogee altitude
522.868 km
Perigee altitude
509.038 km
Semi-major axis
6,894.09 km
Eccentricity
0.001
Inclination
42.9973°
RAAN
178.9789°
Arg. of periapsis
153.4051°
True anomaly
206.67966°
Mean anomaly
206.7313°
Eccentric anomaly
206.70547°
Mean motion
3.79165 °/min
Orbital period
94.95 mins
BSTAR
0.0034359
Loading maneuver chart data...
Computing Atmospheric mass density...
Loading historical data...
Loading historical data...
Loading historical data...
Loading historical data...
Loading historical data...
Loading historical data...
Loading historical data...

Documentation

Showing up to 5 results
|